Regional Weather Roundup
Issued by NWS

Home | Current Version | Previous Version | Graphics & Text | Print | Product List | Glossary On
Versions: 1 2 3 4 5 6 7 8 9 10 11 12 13 14 15 16 17 18 19 20 21 22 23 24 25 26 27 28 29 30 31 32 33 34 35 36 37 38 39 40 41 42 43 44 45 46 47 48 49 50
000
ASUS43 KLOT 252210
RWRIL

ILLINOIS REGIONAL WEATHER ROUNDUP
NATIONAL WEATHER SERVICE CHICAGO/ROMEOVILLE IL
400 PM CST SUN JAN 25 2015

NOTE: "FAIR" INDICATES FEW OR NO CLOUDS BELOW 12,000 FEET WITH NO
SIGNIFICANT WEATHER AND/OR OBSTRUCTIONS TO VISIBILITY.

* THESE STATIONS ARE NOT UNDER NWS QUALITY CONTROL. THEY ALSO MAY NOT
  REPORT WEATHER SUCH AS PRECIPITATION OR FOG.

ILZ001-002-007-009-015-016-024-252300-
NORTHWEST ILLINOIS

CITY           SKY/WX    TMP DP  RH WIND       PRES   REMARKS
MOLINE         CLOUDY    29  20  69 NE16      29.91R WCI  17
STERLING*      CLOUDY    28  18  64 NE16G23   29.91R WCI  17
SAVANNA*       PTCLDY    29  18  61 N14       29.95R WCI  19
$$

ILZ003-004-008-010-011-017-018-252300-
NORTH CENTRAL ILLINOIS

CITY           SKY/WX    TMP DP  RH WIND       PRES   REMARKS
ROCKFORD       MOCLDY    26  13  57 NE18G28   29.94R WCI  13
FREEPORT*      PTCLDY    26  15  61 N15       29.95R WCI  14
ROCHELLE*      CLOUDY    27  19  71 N13G23    29.90R WCI  16
DE KALB*       CLOUDY    25  18  73 NE17G26   29.88R WCI  12
PERU*          CLOUDY    28  23  80 NE23G29   29.87R HAZE    WCI  14
$$

ILZ005-006-012>014-019>023-252300-
NORTHEAST ILLINOIS

CITY           SKY/WX    TMP DP  RH WIND       PRES   REMARKS
CHICAGO-OHARE  CLOUDY    26  18  71 NE21G30   29.89R WCI  12
CHICAGO-MIDWAY FLURRIES  29  22  75 NE23G31   29.88R WCI  15
AURORA         CLOUDY    28  18  66 NE22      29.88R WCI  14
LANSING*       LGT SNOW  28  26  91 NE16G28   29.86R WCI  16
JOLIET*        CLOUDY    28  23  82 NE21G28   29.87R WCI  15
WAUKEGAN       CLOUDY    25  16  68 N10G28    29.91R WCI  15
DUPAGE AIRPORT CLOUDY    27  18  69 NE22G30   29.88R WCI  13
KANKAKEE*      LGT SNOW  30  28  92 N18G28    29.82R WCI  18
WHEELING       CLOUDY    27  16  63 NE15G26   29.92R WCI  15
MORRIS*        LGT SNOW  29  27  90 NE12G23   29.85R WCI  19
ROMEOVILLE*    DRIZZLE   28  24  84 NE23      29.87R WCI  14
NORTHERLY ISL    N/A     28  23  81 N18         N/A  WCI  15
$$

LMZ740>746-252300-
SOUTHERN LAKE MICHIGAN

STATION/POSITION SKY/WX   TEMP    WIND        PRES    VSBY  WAVE
                          AIR SEA DIR/SP/G                  HT/PER
                          (F)     (DEG/KT/KT) (MB)    (MI)  (FT/S)
WAUKEGAN HARBOR            26      20/ 23/ 32   N/A
HARRISON CRIB              27      30/ 27/ 30   N/A
BURNHAM HARBOR             28      20/ 16/ 25   N/A
CALUMET HARBOR             27      10/ 19/ 27   N/A
MICHIGAN CITY              26      20/ 21/ 24   N/A
$$

ILZ025>027-034>036-040-047-049-050-058-095>099-252300-
WEST-CENTRAL ILLINOIS

CITY           SKY/WX    TMP DP  RH WIND       PRES   REMARKS
QUINCY         MIX PCPN  31  29  92 N22G29    29.84R FOG     WCI  18
GALESBURG*     CLOUDY    29  25  84 N23G30    29.88R WCI  15
MACOMB*        CLOUDY    30  28  90 N26       29.89R WCI  16
JACKSONVILLE*  CLOUDY    37  34  89 N15       29.78R FOG     WCI  27
PITTSFIELD*    FLURRIES  35  32  90 N16G22    29.80R WCI  25
$$

ILZ028>032-037-038-041>044-048-051>054-059>061-252300-
CENTRAL ILLINOIS

CITY           SKY/WX    TMP DP  RH WIND       PRES   REMARKS
PONTIAC        MIX PCPN  32  31  96 N25G32    29.82R WCI  19
BLOOMINGTON    LGT SNOW  32  30  93 NE25G33   29.78R FOG     WCI  19
DECATUR        MIX PCPN  35  34  96 NE23G33   29.72R FOG     WCI  23
PEORIA         MIX PCPN  31  26  82 N16G23    29.83R WCI  20
LACON*         LGT SNOW  28  24  85 N13G25    29.86R WCI  17
LINCOLN*       CLOUDY    35  32  88 N23G31    29.78R WCI  23
SPRINGFIELD    CLOUDY    36  33  89 N20       29.76R WCI  25
TAYLORVILLE    CLOUDY    34  32  93 N21G30    29.73R FOG     WCI  22
$$

ILZ033-039-045-046-055>057-062-063-252300-
EAST-CENTRAL ILLINOIS

CITY           SKY/WX    TMP DP  RH WIND       PRES   REMARKS
CHAMPAIGN      LGT SNOW  35  32  88 NE18G28   29.71R FOG     WCI  24
DANVILLE*      DRIZZLE   32  31  96 NE17G24   29.69R WCI  20
RANTOUL*       CLOUDY    35  32  91 NE23G29   29.73R WCI  23
MATTOON        MIX PCPN  37  35  92 N14       29.66R FOG     WCI  28
PARIS*         LGT RAIN  36  36  99 NE10G18   29.67R WCI  28
$$

ILZ079-100>102-252300-
SOUTHWEST ILLINOIS

CITY           SKY/WX    TMP DP  RH WIND       PRES   REMARKS
ALTON          CLOUDY    37  36  93 N13G20    29.71  FOG     WCI  29
BELLEVILLE     LGT RAIN  42  42  99 N22       29.68R
CAHOKIA*       LGT RAIN  43  40  89 N21G28    29.70R
SPARTA*        DRIZZLE   43  42  96 N8        29.66R
$$

ILZ064>066-069>071-074>076-080>082-084>086-088>090-092>094-252300-
SOUTH-CENTRAL ILLINOIS

CITY           SKY/WX    TMP DP  RH WIND       PRES   REMARKS
CARBONDALE     LGT RAIN  45  42  89 NW13G20   29.63R FOG
CAIRO*         LGT RAIN  46  46 100 SW6       29.66R
EFFINGHAM*     DRIZZLE   40  37  92 N7        29.66R
MARION         RAIN      46  45  93 W12       29.64R
MT. VERNON     CLOUDY    43  39  87 CALM      29.63R
CENTRALIA*     CLOUDY    41  39  91 N13       29.64R FOG
SALEM*         CLOUDY    43  41  93 N9        29.64R FOG
METROPOLIS*    LGT RAIN  43  43 100 SW9G17    29.63R
$$

ILZ067-068-072-073-078-083-087-091-252300-
SOUTHEAST ILLINOIS

CITY           SKY/WX    TMP DP  RH WIND       PRES   REMARKS
LAWRENCEVILLE  CLOUDY    41  40  96 NE3       29.63R FOG
FLORA*         CLOUDY    40  40  99 N3        29.64R FOG
FAIRFIELD*     DRIZZLE   42  42  99 CALM      29.61R
HARRISBURG*    RAIN      42  42 100 W3        29.62R
ROBINSON*      DRIZZLE   39  39  98 NE3       29.64R
CARMI*         LGT RAIN  45  45 100 CALM      29.61R
$$

ABBREVIATIONS USED IN REMARKS
   TC - TEMPERATURE IN CELSIUS
  WCI - WIND CHILL INDEX
   HX - HEAT INDEX
  VSB - VISIBILITY
$$



USA.gov is the U.S. government's official web portal to all federal, state and local government web resources and services.